Regional Weather Roundup
Issued by NWS

Home | Current Version | Previous Version | Text Only | Print | Product List | Glossary On
Versions: 1 2 3 4 5 6 7 8 9 10 11 12 13 14 15 16 17 18 19 20 21 22 23 24 25 26 27
000
ASUS45 KBOU 241307
RWRCO

WEATHER ROUNDUP FOR COLORADO
NATIONAL WEATHER SERVICE DENVER/BOULDER CO
600 AM MST FRI FEB 24 2017

NOTE: "FAIR" INDICATES FEW OR NO CLOUDS BELOW 12000 FEET WITH NO
SIGNIFICANT WEATHER AND/OR OBSTRUCTIONS TO VISIBILITY.

COZ001>005-013-030-031-241400-
...NORTHWEST COLORADO...

CITY           SKY/WX    TMP DP  RH WIND       PRES   REMARKS
CRAIG          FLURRIES  17  10  74 SW7       29.83R WCI   8
HAYDEN         FAIR      12   9  85 CALM      29.80R
MEEKER         LGT SNOW  19  16  88 SW8       29.81R FOG     WCI   9
MOUNT WERNER   NOT AVBL
STEAMBOAT SPGS CLOUDY    14  11  89 CALM      29.78R
WALDEN         NOT AVBL
$$

COZ006>008-011-241400-
...WEST CENTRAL VALLEYS...

CITY           SKY/WX    TMP DP  RH WIND       PRES   REMARKS
GRAND JUNCTION CLOUDY    23  21  92 CALM      29.86R
MONTROSE       MOCLDY    22  14  71 S3        29.87R
EAGLE          CLOUDY    18  14  84 VRB3      29.80R
RIFLE          CLOUDY    24  20  84 CALM      29.84R
DELTA          FAIR      24  15  71 CALM      29.86R
NUCLA          CLOUDY    27  16  63 CALM      29.88R
$$

COZ017>023-064>068-241400-
...SOUTHWEST COLORADO...

CITY           SKY/WX    TMP DP  RH WIND       PRES   REMARKS
DURANGO        FAIR      19  12  74 W5        29.84R WCI  12
CORTEZ         FAIR      20  16  84 E3        29.87R
PAGOSA SPRINGS CLOUDY    14   5  67 CALM      29.81R
TELLURIDE      LGT SNOW  13  10  90 CALM      29.77R
WOLF CREEK PAS LGT SNOW   0  -2  92 S9G18     29.69S VSB 1   WCI -16
$$

COZ009-010-012-014-032>034-037-058>063-241400-
...CENTRAL COLORADO...

CITY           SKY/WX    TMP DP  RH WIND       PRES   REMARKS
ASPEN          CLOUDY    12   6  77 SW5       29.74R WCI   4
BUENA VISTA    FAIR      10   1  65 NW7       29.72S WCI  -1
COPPER MTN     LGT SNOW   5  -4  66 MISG      29.58S
BERTHOUD PASS  CLOUDY    -6 -15  65 NW26      29.52S HAZE    WCI -32
COTTONWOOD PAS MOCLDY    14   0  52 W14G21    29.66R WCI  -1
GUNNISON       FAIR       1  -3  83 CALM      29.80R
KREMMLING      LGT SNOW  19  16  86 CALM      29.75R
LEADVILLE      FLURRIES   2  -4  76 E3        29.64R
MONARCH PASS   CLOUDY     1  -4  78 W18       29.70R WCI -19
SALIDA         FAIR      17   5  57 NW5       29.82R WCI  10
SUNLIGHT       NOT AVBL
WILKERSON PASS FAIR       1  -8  66 W6        29.62S WCI -10
$$

COZ069>075-241400-
...SAN LUIS VALLEY/SANGRE DE CRISTO MOUNTAINS...

CITY           SKY/WX    TMP DP  RH WIND       PRES   REMARKS
ALAMOSA        MOCLDY    12   7  80 SE5       29.77R WCI   4
LA VETA PASS   CLOUDY     9   1  72 SW8G21    29.68R WCI  -4
SAGUACHE       MOCLDY    10   1  67 N10       29.77R WCI  -3
$$

COZ035-036-038>040-241400-
...NORTHERN COLORADO FRONT RANGE...

CITY           SKY/WX    TMP DP  RH WIND       PRES   REMARKS
DENVER INTL AP FLURRIES  18  14  84 N8        29.86R WCI   8
DMNS CITY PARK   N/A     19  14  81 N8        29.87S WCI   9
AURORA         FLURRIES  17  15  92 N5        29.86R WCI  10
FRONT RANGE AP NOT AVBL
ERIE MUNI ARPT FLURRIES  20  16  84 NE7       29.89R WCI  11
BOULDER MUN AP LGT SNOW  19  18  93 CALM      29.87R
CENTENNIAL     LGT SNOW  17  14  88 N6        29.84R FOG     WCI   9
BROOMFIELD     LGT SNOW  19  16  86 N5        29.86R WCI  13
FORT COLLINS   FLURRIES  19  14  81 NE8       29.89R WCI   9
LONGMONT       CLOUDY    22  16  76 NE7       29.91S WCI  14
$$

COZ041-046-047-076>085-087-088-241400-
...PIKES PEAK/PALMER DIVIDE AND SOUTHERN FOOTHILLS...

CITY           SKY/WX    TMP DP  RH WIND       PRES   REMARKS
COLO. SPRINGS  FAIR      12   4  70 W5        29.82R WCI   4
A. F. ACADEMY  FAIR      11   6  78 N7        29.79R WCI   1
SCHRIEVER AFB  FAIR      11   6  78 NW5       29.83R WCI   3
ELLICOTT       FAIR     N/A N/A N/A N7          N/A
FALCON         FAIR      12   6  77 N13G21    29.78R WCI  -3
FORT CARSON    CLOUDY    17   8  65 NW9       29.83R WCI   6
LIMON          CLOUDY    17  14  88 N12       29.85R WCI   4
MONUMENT HILL  LGT SNOW  10   9  92 NW8       29.79R WCI  -1
TRINIDAD       CLOUDY    19  12  74 E8        29.83R WCI   9
$$

COZ042>045-048>051-090-091-241400-
...NORTHEAST COLORADO...

CITY           SKY/WX    TMP DP  RH WIND       PRES   REMARKS
GREELEY ARPT   FLURRIES  20  16  84 N6        29.92R WCI  12
AKRON          LGT SNOW  18  14  84 N13       29.88R FOG     WCI   5
BURLINGTON     CLOUDY    21  17  84 N15G25    29.86R FOG     WCI   8
WRAY           NOT AVBL
STERLING       LGT SNOW  21  19  93 N5        29.91R WCI  15
HOLYOKE        LGT SNOW  25  21  86 N10       29.90R WCI  15
FORT MORGAN    CLOUDY    19  17  90 N5        29.91R WCI  12
$$

COZ086-089-092>099-241400-
...SOUTHEAST COLORADO...

CITY           SKY/WX    TMP DP  RH WIND       PRES   REMARKS
PUEBLO         FAIR      14   6  70 SE6       29.89R WCI   5
LA JUNTA       MOCLDY    22  12  65 NW6       29.91R WCI  14
LAMAR          CLOUDY    25  13  60 N12       29.89R WCI  14
SPRINGFIELD      N/A     19  13  77 N15       29.85R WCI   5
$$




USA.gov is the U.S. government's official web portal to all federal, state and local government web resources and services.